Location: Bosdarros
(43.2167°N, 0.3667°W)
Time: 16:34:19
(UTC+00:00)

Cosmos 1992 Rocket - Pass Details

Date: 22 April 2021
Orbit: 759 x 765 km, 74.0° (Epoch: 12 May)

Event Time Altitude Azimuth Distance (km) Brightness Sun altitude
Rises 19:37:30 0° 336° (NNW) 3,230 8.1 -8.4°
Reaches altitude 10° 19:39:53 10° 334° (NNW) 2,301 7.3 -8.8°
Maximum altitude 19:45:03 65° 254° (WSW) 834 4.4 -9.6°
Drops below altitude 10° 19:50:11 10° 173° (S) 2,289 6.1 -10.4°
Sets 19:52:34 0° 170° (S) 3,211 6.9 -10.8°
Enters shadow 19:52:41 - 170° (S) 3,259 6.9 -10.8°
